Stündliche Wetter Kyshyn

Heute, 8 Mai, Samstag

Zeit Temperatur Niederschläge Wind Luftdruck Luftfeuchtigkeit
00:00 +7°C° 0.3 mm 2 m/S 737 mmHg 95%
01:00 +7°C° 0.3 mm 2 m/S 737 mmHg 96%
02:00 +7°C° 0 mm 3 m/S 737 mmHg 97%
03:00 +5°C° 0.2 mm 3 m/S 737 mmHg 96%
04:00 +5°C° 0.2 mm 4 m/S 738 mmHg 95%
05:00 +4°C° 0.2 mm 4 m/S 738 mmHg 94%
06:00 +4°C° 0.2 mm 4 m/S 738 mmHg 93%
07:00 +4°C° 0.2 mm 4 m/S 739 mmHg 91%
08:00 +4°C° 0 mm 4 m/S 740 mmHg 89%
09:00 +4°C° 0.6 mm 4 m/S 740 mmHg 91%
10:00 +2°C° 0.6 mm 5 m/S 741 mmHg 93%
11:00 +2°C° 0.6 mm 5 m/S 741 mmHg 95%
12:00 +2°C° 0.2 mm 5 m/S 742 mmHg 93%
13:00 +3°C° 0.2 mm 5 m/S 742 mmHg 91%
14:00 +5°C° 0.2 mm 5 m/S 743 mmHg 89%
15:00 +5°C° 0.2 mm 5 m/S 743 mmHg 83%
16:00 +6°C° 0.2 mm 5 m/S 743 mmHg 78%
17:00 +7°C° 0.2 mm 5 m/S 744 mmHg 73%
18:00 +5°C° 0 mm 4 m/S 744 mmHg 77%
19:00 +4°C° 0 mm 3 m/S 745 mmHg 82%
20:00 +3°C° 0 mm 2 m/S 745 mmHg 86%
21:00 +3°C° 0 mm 2 m/S 746 mmHg 88%
22:00 +3°C° 0 mm 2 m/S 746 mmHg 91%
23:00 +2°C° 0 mm 2 m/S 746 mmHg 93%

Morgen, 9 Mai, Sonntag

Zeit Temperatur Niederschläge Wind Luftdruck Luftfeuchtigkeit
00:00 +2°C° 0 mm 2 m/S 747 mmHg 94%
01:00 +2°C° 0 mm 2 m/S 747 mmHg 94%
02:00 +1°C° 0 mm 2 m/S 747 mmHg 95%
03:00 +1°C° 0 mm 2 m/S 748 mmHg 95%
04:00 +1°C° 0 mm 2 m/S 748 mmHg 95%
05:00 +1°C° 0 mm 2 m/S 748 mmHg 95%
06:00 +3°C° 0 mm 2 m/S 749 mmHg 87%
07:00 +4°C° 0 mm 3 m/S 749 mmHg 80%
08:00 +7°C° 0 mm 3 m/S 750 mmHg 73%
09:00 +9°C° 0 mm 3 m/S 750 mmHg 64%
10:00 +10°C° 0 mm 3 m/S 750 mmHg 55%
11:00 +12°C° 0 mm 3 m/S 750 mmHg 47%
12:00 +14°C° 0 mm 2 m/S 750 mmHg 43%
13:00 +14°C° 0 mm 2 m/S 750 mmHg 40%
14:00 +15°C° 0 mm 2 m/S 750 mmHg 36%
15:00 +15°C° 0 mm 2 m/S 750 mmHg 37%
16:00 +15°C° 0 mm 2 m/S 750 mmHg 37%
17:00 +15°C° 0 mm 2 m/S 750 mmHg 38%
18:00 +13°C° 0 mm 2 m/S 750 mmHg 45%
19:00 +11°C° 0 mm 1 m/S 750 mmHg 53%
20:00 +9°C° 0 mm 1 m/S 751 mmHg 61%
21:00 +9°C° 0 mm 1 m/S 751 mmHg 63%
22:00 +7°C° 0 mm 2 m/S 751 mmHg 64%
23:00 +6°C° 0 mm 2 m/S 751 mmHg 66%

übermorgen, 10 Mai, Montag

Zeit Temperatur Niederschläge Wind Luftdruck Luftfeuchtigkeit
00:00 +6°C° 0 mm 2 m/S 751 mmHg 68%
01:00 +6°C° 0 mm 2 m/S 751 mmHg 70%
02:00 +5°C° 0 mm 2 m/S 751 mmHg 72%
03:00 +5°C° 0 mm 2 m/S 751 mmHg 73%
04:00 +5°C° 0 mm 2 m/S 751 mmHg 74%
05:00 +5°C° 0 mm 2 m/S 752 mmHg 75%
06:00 +7°C° 0 mm 3 m/S 752 mmHg 68%
07:00 +9°C° 0 mm 3 m/S 752 mmHg 62%
08:00 +12°C° 0 mm 3 m/S 752 mmHg 56%
09:00 +13°C° 0 mm 4 m/S 752 mmHg 52%
10:00 +15°C° 0 mm 4 m/S 752 mmHg 48%
11:00 +16°C° 0 mm 5 m/S 752 mmHg 45%
12:00 +17°C° 0 mm 5 m/S 752 mmHg 44%
13:00 +17°C° 0 mm 5 m/S 751 mmHg 43%
14:00 +19°C° 0 mm 5 m/S 751 mmHg 42%
15:00 +18°C° 0 mm 4 m/S 751 mmHg 44%
16:00 +18°C° 0 mm 4 m/S 751 mmHg 47%
17:00 +18°C° 0 mm 4 m/S 751 mmHg 49%
18:00 +16°C° 0 mm 3 m/S 751 mmHg 57%
19:00 +13°C° 0 mm 3 m/S 751 mmHg 65%
20:00 +11°C° 0 mm 3 m/S 751 mmHg 73%
21:00 +10°C° 0 mm 3 m/S 751 mmHg 74%
22:00 +9°C° 0 mm 3 m/S 751 mmHg 75%
23:00 +8°C° 0 mm 3 m/S 751 mmHg 76%

11 Mai, Dienstag

Zeit Temperatur Niederschläge Wind Luftdruck Luftfeuchtigkeit
00:00 +8°C° 0 mm 3 m/S 751 mmHg 77%
01:00 +7°C° 0 mm 3 m/S 751 mmHg 79%
02:00 +7°C° 0 mm 3 m/S 751 mmHg 81%
03:00 +7°C° 0 mm 3 m/S 751 mmHg 81%
04:00 +5°C° 0 mm 3 m/S 751 mmHg 81%
05:00 +5°C° 0 mm 3 m/S 751 mmHg 82%
06:00 +8°C° 0 mm 3 m/S 751 mmHg 73%
07:00 +10°C° 0 mm 3 m/S 751 mmHg 64%
08:00 +12°C° 0 mm 4 m/S 751 mmHg 55%
09:00 +14°C° 0 mm 4 m/S 750 mmHg 50%
10:00 +15°C° 0 mm 4 m/S 750 mmHg 45%
11:00 +18°C° 0 mm 4 m/S 750 mmHg 40%
12:00 +18°C° 0 mm 4 m/S 749 mmHg 38%
13:00 +19°C° 0 mm 4 m/S 749 mmHg 37%
14:00 +20°C° 0 mm 4 m/S 749 mmHg 35%
15:00 +20°C° 0 mm 4 m/S 748 mmHg 38%
16:00 +19°C° 0 mm 4 m/S 748 mmHg 41%
17:00 +19°C° 0 mm 3 m/S 748 mmHg 45%
18:00 +17°C° 0 mm 3 m/S 747 mmHg 54%
19:00 +14°C° 0 mm 3 m/S 747 mmHg 63%
20:00 +12°C° 0 mm 3 m/S 747 mmHg 72%
21:00 +11°C° 0 mm 3 m/S 747 mmHg 78%
22:00 +11°C° 0 mm 3 m/S 747 mmHg 83%
23:00 +11°C° 0 mm 3 m/S 747 mmHg 89%

12 Mai, Mittwoch

Zeit Temperatur Niederschläge Wind Luftdruck Luftfeuchtigkeit
00:00 +10°C° 0 mm 3 m/S 746 mmHg 91%
01:00 +10°C° 0 mm 3 m/S 746 mmHg 94%
02:00 +10°C° 0 mm 3 m/S 746 mmHg 96%
03:00 +9°C° 0 mm 2 m/S 746 mmHg 97%
04:00 +8°C° 0 mm 2 m/S 746 mmHg 97%
05:00 +7°C° 0 mm 2 m/S 746 mmHg 98%
06:00 +9°C° 0 mm 2 m/S 745 mmHg 90%
07:00 +10°C° 0 mm 3 m/S 745 mmHg 82%
08:00 +12°C° 0 mm 3 m/S 745 mmHg 74%
09:00 +11°C° 0 mm 3 m/S 745 mmHg 76%
10:00 +11°C° 0 mm 3 m/S 744 mmHg 78%
11:00 +10°C° 0 mm 3 m/S 744 mmHg 80%
12:00 +12°C° 0.1 mm 3 m/S 744 mmHg 73%
13:00 +13°C° 0.1 mm 4 m/S 743 mmHg 66%
14:00 +14°C° 0.1 mm 4 m/S 743 mmHg 59%
15:00 +14°C° 0.3 mm 4 m/S 743 mmHg 62%
16:00 +14°C° 0.3 mm 4 m/S 742 mmHg 66%
17:00 +13°C° 0.3 mm 4 m/S 742 mmHg 69%
18:00 +12°C° 0.2 mm 4 m/S 742 mmHg 76%
19:00 +10°C° 0.2 mm 4 m/S 742 mmHg 83%
20:00 +8°C° 0.2 mm 3 m/S 742 mmHg 89%
21:00 +8°C° 0 mm 3 m/S 742 mmHg 92%
22:00 +7°C° 0 mm 3 m/S 742 mmHg 94%
23:00 +7°C° 0 mm 3 m/S 742 mmHg 96%

13 Mai, Donnerstag

Zeit Temperatur Niederschläge Wind Luftdruck Luftfeuchtigkeit
00:00 +7°C° 0 mm 3 m/S 741 mmHg 95%
01:00 +7°C° 0 mm 3 m/S 741 mmHg 94%
02:00 +8°C° 0 mm 3 m/S 740 mmHg 93%
03:00 +8°C° 0 mm 3 m/S 740 mmHg 93%
04:00 +8°C° 0 mm 3 m/S 740 mmHg 93%
05:00 +8°C° 0 mm 3 m/S 740 mmHg 94%
06:00 +8°C° 0.1 mm 3 m/S 739 mmHg 90%
07:00 +9°C° 0.1 mm 3 m/S 739 mmHg 86%
08:00 +9°C° 0.1 mm 3 m/S 739 mmHg 82%
09:00 +10°C° 0.3 mm 4 m/S 739 mmHg 80%
10:00 +9°C° 0.3 mm 5 m/S 739 mmHg 79%
11:00 +9°C° 0.3 mm 5 m/S 739 mmHg 78%
12:00 +9°C° 1.1 mm 5 m/S 739 mmHg 83%
13:00 +8°C° 1.1 mm 5 m/S 739 mmHg 88%
14:00 +7°C° 1.1 mm 5 m/S 739 mmHg 93%
15:00 +8°C° 0.6 mm 5 m/S 739 mmHg 93%
16:00 +8°C° 0.6 mm 5 m/S 738 mmHg 93%
17:00 +8°C° 0.6 mm 5 m/S 738 mmHg 94%
18:00 +8°C° 0.1 mm 4 m/S 738 mmHg 94%
19:00 +8°C° 0.1 mm 4 m/S 738 mmHg 94%
20:00 +10°C° 0.1 mm 3 m/S 738 mmHg 94%
21:00 +10°C° 0.1 mm 3 m/S 737 mmHg 95%
22:00 +10°C° 0.1 mm 3 m/S 737 mmHg 96%
23:00 +10°C° 0.1 mm 2 m/S 737 mmHg 97%
Mehr zeigen

Wir brauchen deine Erlaubnis

Meteoprog und unser Service Anbieter werden persönliche Daten aufbewahren, so wie Cookies, Geräte Bezeichnung oder ähnliche Technologien von deinem Gerät und Prozess, so wie Persönliche Daten Inhalte und Werbungen, genauso wie social Media und den Verkehr zu analysieren.

  • Aufbewahrung und/oder Zugang zu deiner Geräte Informationen.

    Cookies, Geräte Bezeichnung oder andere Informationen, können aufbewahrt oder Zugang zu deinem Gerät erhalten, für den Grund, der oben angegeben wird.

  • Personalisierte Werbung und Inhalte, Messungen, Einblick in das Publikum und Produkt Entwicklung.

    Werbungen und Inhalte können personalisiert werden, basierend auf ein Profil. Mehr Daten können besser personalisierte Werbungen und Inhalte hinzufügen. Werbung und Inhalte können gezeigt und gemessen werden. Einblicke über das Publikum, welche die Werbung gesehen haben und den Inhalt, können abgeleitet werden. So wie Daten können genutzt werden, um es zu verbessern oder die Benutzer Erfahrung zu verbessern das System und die Software.

Wenn du “Ich stimme zu” klickst, erlaubst du uns, die Cookies zu benutzen die Geräte Bezeichnung, den Web oder ähnliche Technologien zu benutzen. Deine Settings, können in deinem Gerät bei deinem Browser geändert werden.

Für den bestimmten Zweck, berechtigten Interessen beruhen darauf, mehr als auf den Inhalt. Du kannst mehr darüber in unseren Privaten und Cookie Politik lesen.